Regional Weather Roundup
Issued by NWS Tiyan, Guam

Home | Current Version | Previous Version | Text Only | Print | Product List | Glossary On
Versions: 1 2 3 4 5 6 7 8 9 10 11 12 13 14 15 16 17 18 19 20 21 22 23 24 25 26 27 28 29 30 31 32 33 34 35 36 37 38 39 40 41 42 43 44 45 46 47 48 49 50
000
ASGM40 PGUM 030512
RWRGUM
WEATHER ROUNDUP FOR THE MARIANAS
NATIONAL WEATHER SERVICE TIYAN GU
300 PM CHST WED SEP 03 2014

GUZ001>004-030600-
MARIANA ISLANDS-

CITY           SKY/WX    TMP DP  RH WIND       PRES   REMARKS
GUAM AIRPORT   SUNNY     84  77  79 S3        29.80R HX  94
ANDERSEN AFB   RAIN      79  75  89 NW1       29.81
ROTA AIRPORT   PTSUNNY   77  75  94 S6        29.81F
TINIAN AP      MOSUNNY   84  77  79 S3        29.78F HX  94
SAIPAN AP      MOSUNNY   84  79  84 SE8       29.80F HX  96

$$



USA.gov is the U.S. government's official web portal to all federal, state and local government web resources and services.